Estherville, IA

9:09 PM CST on January 17, 2018 (GMT -0600)
Estherville Municipal

Weather History for KEST - January, 2011

Change the Weather History Date:

Wednesday, January 5, 2011

  Actual Average Record
Temperature  
Mean Temperature 21 °F 16 °F  
Max Temperature 30 °F 24 °F 55 °F (2012)
Min Temperature 12 °F 7 °F -20 °F (1960)
Degree Days  
Heating Degree Days 44 49  
Month to date heating degree days 258 245  
Since 1 July heating degree days 3151 3388  
Cooling Degree Days 0 0  
Month to date cooling degree days 0 0  
Year to date cooling degree days 0 0  
Moisture  
Dew Point 19 °F    
Average Humidity 82    
Maximum Humidity 92    
Minimum Humidity 72    
Precipitation  
Precipitation T in 0.01 in 0.15 in (1951)
Month to date precipitation T 0.04  
Year to date precipitation T  
Sea Level Pressure  
Sea Level Pressure 29.87 in    
Wind  
Wind Speed 12 mph (WNW)    
Max Wind Speed 22 mph    
Max Gust Speed 26 mph    
Visibility 10 miles    
Events Snow    
T = Trace of Precipitation, MM = Missing Value Source: NWS Daily Summary

Daily Weather History Graph

Daily Weather History Graph

Search for Another Location

Airport or City:

Trip Planner

Search our weather history database for the weather conditions in past years. The results will help you decide how hot, cold, wet, or windy it might be!

Date:

Astronomy

Jan. 05, 2011 Rise Set
Actual Time 7:51 AM CST 4:57 PM CST
Civil Twilight 7:19 AM CST 5:29 PM CST
Nautical Twilight 6:43 AM CST 6:05 PM CST
Astronomical Twilight 6:08 AM CST 6:40 PM CST
Moon 8:35 AM CST (1/5) 6:36 PM CST (1/5)
Length of Visible Light 10h 10m
Length of Day
9h 05m
New Moon, 2% of the Moon is Illuminated
Jan 5
New Moon
Jan 12
First Quarter
Jan 19
Full
Jan 26
Last Quarter
Feb 2
New

Hourly Weather History & Observations

Time (CST) Temp. Windchill Dew Point Humidity Pressure Visibility Wind Dir Wind Speed Gust Speed Precip Events Conditions
12:52 AM 12.9 °F 1.6 °F 10.0 °F 88% 29.96 in 10.0 mi South 8.1 mph - N/A   Clear
1:52 AM 14.0 °F 3.9 °F 10.9 °F 88% 29.94 in 10.0 mi South 6.9 mph - N/A   Mostly Cloudy
2:52 AM 14.0 °F 2.0 °F 10.9 °F 88% 29.92 in 10.0 mi South 9.2 mph - N/A   Mostly Cloudy
3:52 AM 16.0 °F 4.4 °F 12.9 °F 88% 29.90 in 10.0 mi South 9.2 mph - N/A   Partly Cloudy
4:52 AM 17.1 °F 7.6 °F 14.0 °F 88% 29.88 in 10.0 mi SSW 6.9 mph - N/A   Overcast
5:52 AM 21.0 °F 13.4 °F 16.0 °F 81% 29.87 in 10.0 mi SSW 5.8 mph - N/A   Overcast
6:52 AM 21.0 °F 9.9 °F 17.1 °F 85% 29.86 in 10.0 mi WSW 10.4 mph - N/A   Overcast
7:52 AM 21.9 °F 14.5 °F 17.1 °F 82% 29.85 in 10.0 mi West 5.8 mph - N/A   Overcast
8:52 AM 21.9 °F 11.0 °F 18.0 °F 85% 29.84 in 10.0 mi WSW 10.4 mph - N/A   Overcast
9:34 AM 24.8 °F 14.0 °F 19.4 °F 80% 29.78 in 4.0 mi West 11.5 mph - 0.00 in Snow Light Snow
9:41 AM 24.8 °F 14.6 °F 19.4 °F 80% 29.78 in 7.0 mi West 10.4 mph - 0.00 in Snow Light Snow
9:52 AM 25.0 °F 14.2 °F 19.0 °F 78% 29.84 in 10.0 mi West 11.5 mph - 0.00 in   Overcast
10:52 AM 27.0 °F 18.0 °F 19.9 °F 75% 29.84 in 10.0 mi West 9.2 mph - N/A   Mostly Cloudy
11:52 AM 28.0 °F 17.0 °F 21.0 °F 75% 29.83 in 10.0 mi West 13.8 mph - N/A   Overcast
12:52 PM 30.0 °F 19.1 °F 23.0 °F 75% 29.81 in 10.0 mi WNW 15.0 mph - N/A   Overcast
1:52 PM 30.0 °F 17.9 °F 24.1 °F 79% 29.82 in 8.0 mi WNW 18.4 mph - 0.00 in Snow Light Snow
2:52 PM 28.0 °F 16.5 °F 25.0 °F 88% 29.84 in 8.0 mi WNW 15.0 mph - 0.00 in Snow Light Snow
3:05 PM 28.4 °F 15.4 °F 24.8 °F 86% 29.79 in 10.0 mi NW 19.6 mph - 0.00 in   Overcast
3:30 PM 28.4 °F 15.8 °F 24.8 °F 86% 29.80 in 10.0 mi NW 18.4 mph - 0.00 in   Overcast
3:52 PM 28.0 °F 16.1 °F 24.1 °F 85% 29.87 in 10.0 mi NW 16.1 mph - 0.00 in   Overcast
4:52 PM 27.0 °F 14.3 °F 23.0 °F 85% 29.88 in 10.0 mi NW 17.3 mph - N/A   Overcast
5:35 PM 26.6 °F 15.7 °F 21.2 °F 80% 29.83 in 10.0 mi NW 12.7 mph - N/A   Overcast
5:52 PM 26.1 °F 14.0 °F 21.9 °F 84% 29.89 in 10.0 mi NW 15.0 mph - N/A   Overcast
6:52 PM 25.0 °F 11.7 °F 21.0 °F 85% 29.91 in 10.0 mi NNW 17.3 mph - N/A   Overcast
7:17 PM 24.8 °F 11.1 °F 21.2 °F 86% 29.86 in 10.0 mi NNW 18.4 mph - N/A   Overcast
7:52 PM 24.1 °F 11.5 °F 19.9 °F 84% 29.91 in 10.0 mi NNW 15.0 mph - N/A   Overcast
8:52 PM 23.0 °F 11.1 °F 19.9 °F 88% 29.92 in 10.0 mi NW 12.7 mph - N/A   Overcast
9:52 PM 21.9 °F 11.7 °F 19.0 °F 89% 29.92 in 10.0 mi NW 9.2 mph - N/A   Overcast
10:15 PM 21.2 °F 8.9 °F 17.6 °F 86% 29.86 in 10.0 mi NW 12.7 mph - N/A   Overcast
10:39 PM 19.4 °F 7.2 °F 17.6 °F 93% 29.86 in 10.0 mi NW 11.5 mph - N/A   Scattered Clouds
10:52 PM 19.9 °F 7.9 °F 17.1 °F 89% 29.92 in 10.0 mi NW 11.5 mph - N/A   Clear
11:35 PM 21.2 °F 7.8 °F 17.6 °F 86% 29.86 in 10.0 mi WNW 15.0 mph - N/A   Mostly Cloudy
11:52 PM 21.9 °F 9.2 °F 18.0 °F 85% 29.91 in 10.0 mi West 13.8 mph - N/A   Overcast